QPF
0.00 0.00 0.00 0.00 0.00 0.00 0.00 0.00 0.00 0.00 0.00 0.00 0.00 0.00 0.00 0.01 0.01 0.03 0.01 0.01 0.00 0.00 0.00 0.00 0.00 0.01 0.01 0.01 0.01 0.01 0.01 0.01 0.01 0.01 0.01 0.01 0.01 0.01 0.01 0.01 0.01 0.01 0.01 0.01 0.01 0.01 0.01 0.01 0.01
0.00 0.00 0.00 0.00 0.00 0.00 0.00 0.00 0.00 0.00 0.00 0.00 0.00 0.01 0.00 0.01 0.02 0.04 0.02 0.01 0.00 0.00 0.01 0.00 0.01 0.01 0.01 0.01 0.01 0.01 0.01 0.01 0.01 0.01 0.01 0.01 0.01 0.01 0.01 0.01 0.01 0.01 0.02 0.02 0.02 0.01 0.01 0.01 0.01
0.00 0.00 0.00 0.00 0.00 0.00 0.00 0.00 0.00 0.00 0.00 0.01 0.01 0.01 0.01 0.01 0.02 0.06 0.03 0.01 0.00 0.01 0.02 0.01 0.01 0.01 0.01 0.01 0.01 0.01 0.02 0.01 0.01 0.01 0.01 0.01 0.01 0.01 0.01 0.02 0.02 0.01 0.02 0.01 0.01 0.01 0.01 0.01 0.01
0.00 0.00 0.00 0.00 0.00 0.00 0.00 0.00 0.00 0.00 0.00 0.01 0.01 0.01 0.01 0.01 0.01 0.03 0.02 0.01 0.01 0.02 0.03 0.02 0.01 0.02 0.01 0.01 0.01 0.02 0.02 0.01 0.01 0.01 0.01 0.01 0.01 0.01 0.02 0.02 0.02 0.02 0.03 0.03 0.03 0.02 0.02 0.02 0.01
0.00 0.00 0.00 0.00 0.00 0.00 0.00 0.01 0.01 0.01 0.00 0.00 0.00 0.00 0.01 0.01 0.01 0.02 0.01 0.01 0.02 0.04 0.04 0.03 0.03 0.03 0.03 0.02 0.01 0.02 0.02 0.02 0.02 0.02 0.03 0.02 0.02 0.02 0.03 0.03 0.05 0.05 0.05 0.05 0.05 0.04 0.04 0.03 0.02
0.00 0.00 0.00 0.00 0.00 0.00 0.00 0.01 0.01 0.01 0.00 0.00 0.00 0.00 0.00 0.01 0.00 0.01 0.01 0.01 0.01 0.03 0.04 0.04 0.04 0.03 0.02 0.02 0.02 0.02 0.03 0.03 0.03 0.03 0.03 0.03 0.02 0.03 0.03 0.05 0.05 0.06 0.06 0.07 0.07 0.06 0.05 0.04 0.04
0.00 0.00 0.00 0.01 0.00 0.00 0.00 0.01 0.01 0.01 0.00 0.01 0.01 0.01 0.00 0.00 0.00 0.01 0.01 0.02 0.02 0.03 0.04 0.05 0.05 0.04 0.03 0.03 0.03 0.03 0.03 0.03 0.03 0.03 0.03 0.02 0.02 0.03 0.03 0.04 0.05 0.06 0.06 0.07 0.08 0.07 0.06 0.06 0.05
0.00 0.00 0.00 0.00 0.01 0.00 0.00 0.01 0.01 0.01 0.01 0.00 0.00 0.01 0.01 0.01 0.01 0.01 0.02 0.05 0.04 0.06 0.08 0.08 0.06 0.05 0.04 0.04 0.03 0.02 0.02 0.03 0.03 0.03 0.03 0.02 0.02 0.02 0.03 0.04 0.05 0.05 0.05 0.05 0.08 0.10 0.10 0.08 0.07
0.00 0.00 0.00 0.00 0.00 0.01 0.01 0.00 0.00 0.01 0.01 0.01 0.01 0.01 0.01 0.01 0.01 0.01 0.02 0.02 0.02 0.07 0.15 0.15 0.07 0.05 0.06 0.05 0.04 0.03 0.04 0.05 0.04 0.03 0.03 0.02 0.01 0.02 0.03 0.03 0.04 0.04 0.04 0.06 0.09 0.10 0.10 0.10 0.10
0.00 0.00 0.00 0.01 0.00 0.00 0.00 0.00 0.00 0.01 0.01 0.02 0.01 0.01 0.01 0.02 0.02 0.02 0.03 0.02 0.02 0.02 0.05 0.09 0.08 0.05 0.05 0.06 0.06 0.06 0.07 0.07 0.04 0.04 0.04 0.04 0.04 0.03 0.03 0.04 0.04 0.05 0.06 0.07 0.09 0.10 0.11 0.12 0.12
0.00 0.00 0.01 0.01 0.00 0.00 0.01 0.00 0.00 0.01 0.01 0.01 0.01 0.01 0.02 0.02 0.04 0.04 0.02 0.01 0.01 0.02 0.03 0.05 0.05 0.04 0.04 0.06 0.06 0.06 0.08 0.07 0.06 0.05 0.04 0.05 0.05 0.05 0.05 0.07 0.07 0.07 0.08 0.09 0.10 0.10 0.09 0.09 0.11
0.00 0.00 0.00 0.00 0.00 0.00 0.00 0.00 0.00 0.01 0.01 0.01 0.01 0.01 0.04 0.05 0.07 0.04 0.02 0.02 0.02 0.03 0.04 0.04 0.04 0.03 0.04 0.03 0.03 0.03 0.05 0.06 0.05 0.05 0.05 0.05 0.06 0.06 0.07 0.08 0.08 0.07 0.08 0.09 0.10 0.11 0.10 0.09 0.09
0.00 0.00 0.00 0.00 0.00 0.00 0.00 0.00 0.01 0.00 0.01 0.01 0.02 0.02 0.04 0.06 0.07 0.04 0.03 0.03 0.03 0.04 0.05 0.05 0.05 0.04 0.03 0.04 0.04 0.04 0.03 0.04 0.05 0.06 0.05 0.05 0.06 0.07 0.08 0.09 0.08 0.07 0.07 0.09 0.09 0.09 0.09 0.10 0.09
0.00 0.00 0.00 0.00 0.00 0.00 0.00 0.01 0.01 0.01 0.02 0.03 0.02 0.02 0.02 0.02 0.03 0.03 0.03 0.04 0.04 0.03 0.04 0.04 0.04 0.03 0.04 0.04 0.05 0.07 0.05 0.04 0.04 0.04 0.05 0.05 0.07 0.07 0.09 0.11 0.10 0.07 0.06 0.07 0.08 0.08 0.09 0.10 0.10
0.00 0.00 0.00 0.00 0.00 0.00 0.00 0.00 0.00 0.01 0.01 0.01 0.01 0.01 0.02 0.02 0.04 0.03 0.03 0.03 0.02 0.02 0.03 0.03 0.04 0.04 0.05 0.07 0.08 0.07 0.07 0.05 0.05 0.06 0.05 0.06 0.06 0.06 0.08 0.08 0.07 0.07 0.09 0.10 0.09 0.09 0.10 0.10 0.11
0.00 0.00 0.00 0.00 0.00 0.00 0.00 0.01 0.01 0.00 0.00 0.01 0.01 0.01 0.02 0.02 0.03 0.03 0.02 0.01 0.01 0.02 0.04 0.05 0.05 0.06 0.08 0.10 0.11 0.08 0.06 0.06 0.06 0.05 0.05 0.04 0.04 0.05 0.06 0.05 0.04 0.04 0.06 0.08 0.09 0.10 0.10 0.10 0.10
0.00 0.00 0.00 0.00 0.00 0.00 0.00 0.01 0.01 0.00 0.00 0.01 0.01 0.01 0.01 0.01 0.01 0.02 0.01 0.01 0.01 0.01 0.03 0.07 0.09 0.08 0.10 0.09 0.10 0.08 0.07 0.05 0.06 0.08 0.07 0.05 0.05 0.05 0.06 0.04 0.03 0.04 0.05 0.06 0.06 0.08 0.10 0.10 0.08
0.00 0.00 0.00 0.01 0.00 0.00 0.00 0.00 0.00 0.01 0.01 0.01 0.01 0.02 0.01 0.01 0.01 0.01 0.01 0.01 0.02 0.01 0.02 0.05 0.08 0.08 0.08 0.08 0.07 0.07 0.07 0.07 0.10 0.09 0.06 0.05 0.05 0.04 0.05 0.05 0.04 0.05 0.05 0.06 0.06 0.06 0.07 0.08 0.08
0.00 0.00 0.00 0.00 0.00 0.00 0.00 0.00 0.00 0.00 0.01 0.01 0.01 0.02 0.01 0.01 0.00 0.00 0.01 0.01 0.01 0.01 0.02 0.05 0.08 0.11 0.12 0.13 0.13 0.14 0.13 0.11 0.10 0.06 0.04 0.04 0.05 0.05 0.05 0.05 0.05 0.04 0.04 0.04 0.05 0.05 0.06 0.06 0.08
0.00 0.00 0.00 0.00 0.00 0.00 0.00 0.00 0.01 0.01 0.01 0.01 0.01 0.01 0.01 0.00 0.00 0.01 0.01 0.02 0.02 0.02 0.04 0.05 0.07 0.10 0.12 0.12 0.12 0.12 0.11 0.09 0.06 0.04 0.04 0.04 0.05 0.05 0.04 0.05 0.04 0.04 0.04 0.04 0.05 0.05 0.05 0.05 0.07
0.00 0.00 0.00 0.00 0.00 0.00 0.00 0.00 0.01 0.01 0.01 0.01 0.01 0.01 0.00 0.00 0.01 0.01 0.02 0.02 0.03 0.03 0.04 0.04 0.05 0.06 0.06 0.06 0.07 0.08 0.07 0.05 0.04 0.03 0.03 0.03 0.03 0.04 0.04 0.04 0.04 0.04 0.05 0.05 0.05 0.06 0.06 0.07 0.07
0.00 0.00 0.00 0.00 0.00 0.00 0.00 0.01 0.01 0.00 0.00 0.00 0.01 0.01 0.01 0.01 0.01 0.01 0.02 0.02 0.02 0.03 0.04 0.04 0.03 0.03 0.03 0.03 0.05 0.07 0.09 0.08 0.07 0.05 0.03 0.03 0.03 0.03 0.04 0.05 0.05 0.05 0.06 0.07 0.07 0.08 0.09 0.11 0.10
0.00 0.00 0.00 0.00 0.00 0.00 0.00 0.01 0.01 0.00 0.00 0.00 0.00 0.01 0.01 0.01 0.01 0.01 0.02 0.02 0.02 0.03 0.03 0.03 0.02 0.02 0.02 0.03 0.04 0.04 0.04 0.06 0.08 0.07 0.06 0.05 0.05 0.05 0.05 0.05 0.05 0.06 0.06 0.07 0.07 0.07 0.08 0.09 0.09
0.00 0.00 0.00 0.00 0.00 0.01 0.00 0.01 0.01 0.00 0.00 0.00 0.00 0.01 0.01 0.01 0.01 0.01 0.01 0.02 0.03 0.03 0.03 0.03 0.03 0.02 0.02 0.03 0.03 0.03 0.03 0.03 0.04 0.05 0.05 0.07 0.08 0.08 0.07 0.06 0.06 0.06 0.07 0.07 0.06 0.05 0.05 0.06 0.06
0.00 0.00 0.00 0.00 0.01 0.00 0.00 0.00 0.00 0.00 0.01 0.01 0.00 0.00 0.01 0.02 0.02 0.02 0.03 0.03 0.04 0.04 0.03 0.03 0.02 0.02 0.02 0.03 0.03 0.03 0.03 0.04 0.05 0.04 0.04 0.04 0.05 0.07 0.09 0.09 0.08 0.07 0.06 0.07 0.06 0.05 0.04 0.05 0.05
0.00 0.00 0.01 0.01 0.01 0.00 0.00 0.00 0.00 0.01 0.01 0.01 0.00 0.00 0.01 0.02 0.02 0.03 0.03 0.03 0.04 0.04 0.04 0.05 0.03 0.03 0.04 0.04 0.03 0.03 0.03 0.03 0.04 0.04 0.05 0.04 0.04 0.03 0.05 0.07 0.06 0.06 0.05 0.05 0.06 0.06 0.05 0.05 0.05
0.00 0.00 0.00 0.01 0.01 0.00 0.00 0.01 0.01 0.01 0.01 0.01 0.00 0.00 0.01 0.01 0.02 0.02 0.03 0.03 0.04 0.04 0.05 0.05 0.04 0.04 0.05 0.05 0.04 0.03 0.03 0.03 0.03 0.03 0.05 0.05 0.04 0.02 0.03 0.05 0.05 0.04 0.04 0.05 0.05 0.05 0.04 0.04 0.04
0.00 0.00 0.01 0.01 0.01 0.01 0.01 0.01 0.01 0.01 0.01 0.01 0.01 0.01 0.01 0.01 0.02 0.02 0.02 0.02 0.02 0.03 0.04 0.05 0.05 0.06 0.06 0.06 0.06 0.04 0.03 0.04 0.05 0.06 0.04 0.03 0.02 0.02 0.03 0.04 0.05 0.05 0.05 0.05 0.05 0.05 0.04 0.04 0.03
0.00 0.00 0.00 0.01 0.01 0.01 0.01 0.02 0.01 0.02 0.01 0.01 0.02 0.01 0.01 0.01 0.01 0.02 0.01 0.01 0.01 0.02 0.03 0.03 0.04 0.04 0.04 0.06 0.09 0.09 0.08 0.08 0.08 0.07 0.04 0.03 0.02 0.02 0.03 0.04 0.06 0.06 0.05 0.05 0.05 0.04 0.03 0.03 0.04
0.00 0.00 0.00 0.01 0.01 0.01 0.02 0.02 0.02 0.02 0.01 0.01 0.01 0.01 0.01 0.01 0.01 0.01 0.01 0.01 0.01 0.01 0.02 0.03 0.03 0.03 0.04 0.06 0.09 0.11 0.10 0.07 0.05 0.04 0.04 0.03 0.03 0.03 0.04 0.05 0.06 0.07 0.05 0.04 0.04 0.04 0.03 0.03 0.04
MSLP
1010.19 1010.47 1010.77 1010.98 1011.01 1010.82 1010.41 1009.83 1009.21 1008.67 1008.30 1008.16 1008.24 1008.47 1008.70 1008.83 1008.72 1008.34 1007.73 1006.98 1006.25 1005.69 1005.40 1005.45 1005.82 1006.40 1007.06 1007.67 1008.14 1008.43 1008.56 1008.62 1008.69 1008.87 1009.18 1009.63 1010.15 1010.67 1011.12 1011.45 1011.67 1011.81 1011.95 1012.14 1012.44 1012.85 1013.33 1013.82 1014.24
1010.21 1010.50 1010.79 1010.99 1011.03 1010.85 1010.47 1009.95 1009.39 1008.91 1008.61 1008.52 1008.65 1008.91 1009.18 1009.32 1009.24 1008.88 1008.27 1007.53 1006.77 1006.16 1005.81 1005.78 1006.06 1006.55 1007.15 1007.73 1008.20 1008.52 1008.71 1008.82 1008.95 1009.15 1009.45 1009.85 1010.29 1010.71 1011.06 1011.29 1011.44 1011.55 1011.69 1011.93 1012.29 1012.76 1013.31 1013.84 1014.28
1010.32 1010.59 1010.87 1011.07 1011.13 1011.00 1010.69 1010.27 1009.81 1009.43 1009.21 1009.17 1009.32 1009.57 1009.81 1009.91 1009.78 1009.38 1008.74 1007.96 1007.17 1006.51 1006.11 1006.00 1006.21 1006.63 1007.19 1007.74 1008.22 1008.59 1008.84 1009.03 1009.21 1009.45 1009.75 1010.11 1010.47 1010.80 1011.06 1011.22 1011.32 1011.41 1011.57 1011.85 1012.25 1012.78 1013.37 1013.93 1014.39
1010.47 1010.73 1011.00 1011.20 1011.29 1011.23 1011.04 1010.75 1010.43 1010.17 1010.03 1010.04 1010.19 1010.39 1010.55 1010.56 1010.35 1009.87 1009.17 1008.34 1007.51 1006.81 1006.35 1006.19 1006.33 1006.70 1007.20 1007.74 1008.23 1008.62 1008.93 1009.19 1009.43 1009.70 1010.01 1010.34 1010.67 1010.94 1011.14 1011.27 1011.35 1011.45 1011.62 1011.93 1012.37 1012.93 1013.53 1014.09 1014.53
1010.63 1010.88 1011.14 1011.36 1011.50 1011.53 1011.46 1011.31 1011.15 1011.01 1010.97 1011.02 1011.14 1011.28 1011.34 1011.24 1010.92 1010.35 1009.59 1008.72 1007.86 1007.13 1006.65 1006.44 1006.52 1006.82 1007.26 1007.75 1008.22 1008.63 1008.97 1009.26 1009.55 1009.85 1010.17 1010.51 1010.82 1011.08 1011.27 1011.40 1011.49 1011.62 1011.83 1012.15 1012.60 1013.16 1013.74 1014.27 1014.67
1010.77 1011.02 1011.29 1011.53 1011.73 1011.85 1011.91 1011.91 1011.88 1011.87 1011.91 1011.99 1012.09 1012.15 1012.11 1011.90 1011.48 1010.84 1010.03 1009.14 1008.28 1007.55 1007.04 1006.79 1006.81 1007.04 1007.41 1007.82 1008.23 1008.61 1008.93 1009.23 1009.52 1009.84 1010.19 1010.55 1010.88 1011.16 1011.39 1011.55 1011.69 1011.85 1012.09 1012.42 1012.86 1013.37 1013.90 1014.37 1014.73
1010.90 1011.16 1011.44 1011.71 1011.97 1012.18 1012.35 1012.47 1012.57 1012.66 1012.75 1012.84 1012.91 1012.90 1012.78 1012.49 1012.00 1011.32 1010.51 1009.63 1008.79 1008.09 1007.57 1007.30 1007.25 1007.39 1007.65 1007.96 1008.27 1008.56 1008.82 1009.08 1009.36 1009.67 1010.03 1010.41 1010.78 1011.11 1011.40 1011.63 1011.83 1012.04 1012.29 1012.62 1013.03 1013.48 1013.93 1014.33 1014.62
1011.03 1011.31 1011.61 1011.92 1012.23 1012.51 1012.76 1012.98 1013.16 1013.31 1013.43 1013.51 1013.54 1013.48 1013.29 1012.95 1012.44 1011.77 1010.99 1010.17 1009.39 1008.72 1008.22 1007.92 1007.81 1007.85 1007.98 1008.15 1008.33 1008.50 1008.66 1008.84 1009.06 1009.34 1009.69 1010.08 1010.49 1010.88 1011.24 1011.54 1011.81 1012.07 1012.35 1012.67 1013.03 1013.41 1013.77 1014.09 1014.32
1011.18 1011.49 1011.83 1012.17 1012.51 1012.85 1013.15 1013.42 1013.64 1013.81 1013.93 1013.98 1013.97 1013.86 1013.64 1013.28 1012.78 1012.16 1011.45 1010.72 1010.02 1009.41 1008.93 1008.61 1008.43 1008.36 1008.35 1008.38 1008.41 1008.43 1008.46 1008.53 1008.67 1008.90 1009.22 1009.60 1010.03 1010.47 1010.89 1011.26 1011.60 1011.91 1012.21 1012.51 1012.83 1013.14 1013.44 1013.68 1013.85
1011.37 1011.72 1012.08 1012.45 1012.83 1013.20 1013.53 1013.81 1014.03 1014.17 1014.25 1014.27 1014.20 1014.05 1013.81 1013.46 1013.01 1012.46 1011.85 1011.22 1010.61 1010.07 1009.63 1009.29 1009.04 1008.87 1008.73 1008.61 1008.48 1008.35 1008.25 1008.21 1008.25 1008.40 1008.66 1009.02 1009.45 1009.91 1010.37 1010.80 1011.19 1011.55 1011.87 1012.17 1012.47 1012.73 1012.97 1013.16 1013.30
1011.59 1011.97 1012.37 1012.78 1013.18 1013.56 1013.89 1014.15 1014.34 1014.44 1014.46 1014.41 1014.29 1014.10 1013.84 1013.52 1013.12 1012.66 1012.16 1011.63 1011.12 1010.65 1010.23 1009.88 1009.58 1009.31 1009.06 1008.80 1008.54 1008.28 1008.06 1007.90 1007.84 1007.90 1008.10 1008.41 1008.81 1009.27 1009.74 1010.20 1010.63 1011.03 1011.38 1011.71 1011.99 1012.25 1012.46 1012.63 1012.75
1011.81 1012.24 1012.67 1013.11 1013.53 1013.92 1014.24 1014.47 1014.61 1014.65 1014.59 1014.47 1014.28 1014.05 1013.79 1013.48 1013.13 1012.76 1012.35 1011.93 1011.50 1011.09 1010.70 1010.33 1009.99 1009.65 1009.31 1008.95 1008.58 1008.21 1007.89 1007.63 1007.49 1007.47 1007.58 1007.83 1008.18 1008.60 1009.06 1009.53 1009.99 1010.41 1010.81 1011.17 1011.49 1011.77 1012.00 1012.17 1012.31
1012.01 1012.48 1012.95 1013.41 1013.86 1014.25 1014.56 1014.77 1014.85 1014.83 1014.70 1014.50 1014.25 1013.97 1013.68 1013.38 1013.07 1012.76 1012.42 1012.08 1011.72 1011.36 1010.99 1010.63 1010.25 1009.87 1009.46 1009.03 1008.59 1008.16 1007.77 1007.44 1007.22 1007.12 1007.16 1007.33 1007.61 1007.97 1008.40 1008.85 1009.31 1009.76 1010.19 1010.61 1010.99 1011.33 1011.62 1011.85 1012.02
1012.19 1012.69 1013.18 1013.67 1014.14 1014.54 1014.85 1015.03 1015.09 1015.00 1014.81 1014.54 1014.22 1013.89 1013.57 1013.26 1012.97 1012.68 1012.39 1012.10 1011.79 1011.47 1011.13 1010.76 1010.38 1009.97 1009.53 1009.07 1008.59 1008.12 1007.68 1007.31 1007.03 1006.87 1006.83 1006.92 1007.12 1007.41 1007.77 1008.18 1008.63 1009.10 1009.57 1010.05 1010.51 1010.95 1011.33 1011.64 1011.88
1012.38 1012.88 1013.38 1013.88 1014.36 1014.77 1015.08 1015.26 1015.29 1015.17 1014.93 1014.61 1014.23 1013.85 1013.48 1013.14 1012.83 1012.55 1012.28 1012.01 1011.73 1011.44 1011.12 1010.77 1010.39 1009.97 1009.53 1009.05 1008.57 1008.08 1007.63 1007.23 1006.91 1006.69 1006.58 1006.59 1006.70 1006.91 1007.19 1007.55 1007.97 1008.43 1008.95 1009.48 1010.03 1010.56 1011.05 1011.47 1011.81
1012.60 1013.07 1013.55 1014.04 1014.51 1014.93 1015.24 1015.43 1015.45 1015.32 1015.06 1014.70 1014.28 1013.84 1013.42 1013.03 1012.69 1012.39 1012.11 1011.85 1011.59 1011.31 1011.01 1010.68 1010.32 1009.91 1009.48 1009.01 1008.53 1008.04 1007.58 1007.16 1006.81 1006.55 1006.38 1006.32 1006.35 1006.47 1006.67 1006.96 1007.32 1007.77 1008.29 1008.86 1009.48 1010.11 1010.72 1011.26 1011.70
1012.88 1013.28 1013.71 1014.16 1014.61 1015.01 1015.33 1015.53 1015.56 1015.44 1015.17 1014.79 1014.33 1013.85 1013.38 1012.94 1012.55 1012.20 1011.90 1011.63 1011.37 1011.11 1010.83 1010.52 1010.18 1009.80 1009.38 1008.93 1008.45 1007.97 1007.51 1007.07 1006.71 1006.41 1006.19 1006.07 1006.02 1006.06 1006.18 1006.39 1006.69 1007.09 1007.59 1008.19 1008.85 1009.56 1010.26 1010.91 1011.46
1013.22 1013.53 1013.87 1014.25 1014.65 1015.03 1015.34 1015.54 1015.60 1015.50 1015.24 1014.86 1014.39 1013.88 1013.36 1012.86 1012.41 1012.01 1011.67 1011.38 1011.11 1010.85 1010.59 1010.31 1009.99 1009.63 1009.23 1008.79 1008.33 1007.85 1007.38 1006.94 1006.55 1006.23 1005.99 1005.81 1005.71 1005.68 1005.73 1005.86 1006.09 1006.43 1006.89 1007.47 1008.14 1008.88 1009.65 1010.38 1011.03
1013.62 1013.80 1014.03 1014.31 1014.63 1014.97 1015.27 1015.47 1015.55 1015.49 1015.26 1014.90 1014.43 1013.90 1013.34 1012.79 1012.29 1011.83 1011.44 1011.11 1010.82 1010.55 1010.30 1010.03 1009.73 1009.40 1009.01 1008.58 1008.12 1007.64 1007.17 1006.73 1006.33 1006.01 1005.74 1005.54 1005.41 1005.33 1005.32 1005.39 1005.55 1005.82 1006.21 1006.74 1007.38 1008.12 1008.91 1009.70 1010.42
1014.03 1014.07 1014.17 1014.34 1014.57 1014.85 1015.11 1015.32 1015.43 1015.39 1015.21 1014.88 1014.43 1013.90 1013.32 1012.73 1012.17 1011.66 1011.21 1010.83 1010.50 1010.21 1009.95 1009.69 1009.40 1009.07 1008.69 1008.27 1007.81 1007.34 1006.87 1006.42 1006.03 1005.71 1005.45 1005.24 1005.10 1005.01 1004.96 1004.99 1005.09 1005.29 1005.61 1006.06 1006.65 1007.34 1008.12 1008.91 1009.67
1014.39 1014.29 1014.27 1014.33 1014.47 1014.68 1014.91 1015.11 1015.23 1015.23 1015.09 1014.81 1014.40 1013.88 1013.29 1012.67 1012.07 1011.49 1010.98 1010.54 1010.16 1009.83 1009.55 1009.26 1008.97 1008.64 1008.26 1007.84 1007.39 1006.92 1006.45 1006.02 1005.65 1005.34 1005.09 1004.91 1004.79 1004.70 1004.65 1004.65 1004.71 1004.85 1005.11 1005.49 1005.99 1006.63 1007.35 1008.13 1008.89
1014.68 1014.47 1014.34 1014.30 1014.36 1014.51 1014.69 1014.87 1015.00 1015.03 1014.93 1014.70 1014.32 1013.83 1013.25 1012.61 1011.97 1011.34 1010.76 1010.25 1009.80 1009.42 1009.08 1008.76 1008.44 1008.10 1007.72 1007.31 1006.86 1006.40 1005.95 1005.54 1005.19 1004.90 1004.69 1004.54 1004.44 1004.38 1004.35 1004.35 1004.40 1004.51 1004.71 1005.03 1005.47 1006.03 1006.69 1007.41 1008.15
1014.90 1014.62 1014.42 1014.31 1014.30 1014.38 1014.51 1014.67 1014.79 1014.83 1014.75 1014.55 1014.21 1013.75 1013.18 1012.54 1011.86 1011.19 1010.55 1009.96 1009.44 1008.98 1008.58 1008.21 1007.85 1007.49 1007.10 1006.69 1006.25 1005.81 1005.38 1004.99 1004.67 1004.41 1004.23 1004.11 1004.04 1004.01 1004.01 1004.03 1004.09 1004.20 1004.39 1004.67 1005.06 1005.56 1006.16 1006.83 1007.53
1015.10 1014.81 1014.57 1014.41 1014.35 1014.37 1014.45 1014.55 1014.64 1014.66 1014.59 1014.40 1014.08 1013.64 1013.09 1012.45 1011.75 1011.04 1010.34 1009.69 1009.09 1008.55 1008.07 1007.64 1007.24 1006.85 1006.45 1006.04 1005.61 1005.19 1004.79 1004.42 1004.11 1003.87 1003.70 1003.60 1003.55 1003.55 1003.58 1003.64 1003.73 1003.86 1004.07 1004.35 1004.72 1005.19 1005.75 1006.38 1007.03
1015.37 1015.09 1014.86 1014.69 1014.59 1014.55 1014.57 1014.60 1014.61 1014.58 1014.47 1014.27 1013.94 1013.50 1012.96 1012.32 1011.62 1010.88 1010.15 1009.43 1008.77 1008.15 1007.61 1007.11 1006.66 1006.23 1005.81 1005.40 1004.98 1004.57 1004.18 1003.83 1003.53 1003.29 1003.11 1003.01 1002.97 1002.97 1003.02 1003.11 1003.25 1003.43 1003.68 1004.00 1004.39 1004.87 1005.43 1006.03 1006.66
1015.77 1015.55 1015.35 1015.18 1015.05 1014.96 1014.89 1014.82 1014.73 1014.61 1014.42 1014.15 1013.80 1013.34 1012.79 1012.16 1011.46 1010.72 1009.96 1009.21 1008.49 1007.82 1007.20 1006.64 1006.13 1005.66 1005.22 1004.79 1004.37 1003.97 1003.58 1003.23 1002.91 1002.66 1002.46 1002.33 1002.27 1002.27 1002.33 1002.45 1002.63 1002.87 1003.19 1003.57 1004.03 1004.56 1005.14 1005.75 1006.37
1016.34 1016.19 1016.04 1015.89 1015.74 1015.59 1015.42 1015.23 1015.01 1014.75 1014.44 1014.08 1013.65 1013.16 1012.60 1011.97 1011.28 1010.55 1009.78 1009.01 1008.26 1007.54 1006.86 1006.23 1005.67 1005.14 1004.65 1004.19 1003.76 1003.35 1002.95 1002.59 1002.26 1001.98 1001.75 1001.59 1001.49 1001.47 1001.53 1001.67 1001.90 1002.21 1002.60 1003.08 1003.63 1004.23 1004.87 1005.51 1006.14
1017.05 1016.98 1016.89 1016.76 1016.59 1016.37 1016.09 1015.76 1015.39 1014.97 1014.51 1014.03 1013.51 1012.96 1012.37 1011.74 1011.07 1010.35 1009.61 1008.84 1008.07 1007.31 1006.57 1005.87 1005.23 1004.63 1004.08 1003.57 1003.10 1002.66 1002.25 1001.87 1001.53 1001.22 1000.97 1000.78 1000.67 1000.63 1000.69 1000.85 1001.13 1001.50 1001.99 1002.55 1003.20 1003.89 1004.60 1005.30 1005.97
1017.78 1017.79 1017.76 1017.65 1017.46 1017.18 1016.81 1016.34 1015.81 1015.23 1014.62 1013.99 1013.37 1012.75 1012.13 1011.50 1010.85 1010.16 1009.44 1008.68 1007.89 1007.09 1006.29 1005.51 1004.76 1004.06 1003.41 1002.83 1002.29 1001.81 1001.38 1000.99 1000.65 1000.36 1000.12 999.94 999.83 999.82 999.90 1000.10 1000.42 1000.87 1001.43 1002.09 1002.83 1003.61 1004.39 1005.15 1005.86
1018.42 1018.49 1018.50 1018.42 1018.22 1017.89 1017.44 1016.87 1016.20 1015.47 1014.72 1013.97 1013.25 1012.56 1011.90 1011.26 1010.63 1009.96 1009.26 1008.51 1007.70 1006.85 1005.96 1005.07 1004.20 1003.37 1002.59 1001.89 1001.28 1000.75 1000.29 999.92 999.61 999.37 999.19 999.08 999.05 999.09 999.24 999.50 999.89 1000.40 1001.03 1001.77 1002.58 1003.43 1004.29 1005.10 1005.84
Thickness
5808 5813 5817 5815 5811 5809 5802 5808 5815 5815 5817 5824 5825 5822 5816 5810 5803 5796 5817 5824 5822 5819 5811 5799 5794 5790 5787 5784 5781 5779 5776 5772 5769 5766 5763 5760 5757 5755 5752 5750 5748 5746 5744 5743 5742 5740 5739 5738 5737
5814 5816 5814 5814 5809 5798 5797 5810 5811 5814 5820 5825 5824 5821 5815 5811 5814 5813 5816 5818 5819 5816 5809 5800 5791 5787 5784 5781 5778 5776 5772 5769 5766 5763 5760 5757 5754 5752 5749 5747 5745 5743 5742 5740 5739 5737 5736 5735 5734
5814 5815 5813 5813 5806 5800 5798 5808 5812 5818 5824 5821 5819 5819 5812 5805 5810 5812 5814 5816 5816 5812 5806 5797 5788 5784 5781 5778 5775 5772 5769 5766 5762 5760 5757 5754 5752 5749 5747 5744 5742 5741 5739 5737 5736 5735 5734 5732 5731
5814 5813 5814 5808 5799 5805 5807 5810 5815 5815 5818 5819 5816 5810 5811 5810 5811 5813 5814 5814 5812 5808 5803 5793 5785 5781 5778 5774 5771 5768 5765 5762 5759 5756 5754 5751 5749 5747 5744 5742 5740 5738 5736 5734 5733 5732 5730 5729 5728
5814 5811 5804 5800 5800 5807 5813 5814 5814 5810 5810 5811 5812 5804 5801 5809 5813 5813 5811 5810 5807 5804 5800 5791 5781 5777 5774 5771 5767 5764 5762 5759 5756 5754 5751 5749 5746 5744 5741 5739 5738 5736 5734 5732 5730 5729 5727 5726 5725
5810 5810 5799 5793 5797 5806 5812 5814 5812 5808 5808 5809 5807 5802 5800 5808 5808 5808 5808 5806 5804 5800 5796 5787 5777 5774 5770 5767 5763 5761 5758 5756 5753 5751 5748 5745 5743 5740 5738 5736 5735 5733 5731 5729 5727 5726 5724 5723 5721
5805 5804 5796 5794 5794 5800 5805 5813 5807 5804 5803 5804 5807 5799 5800 5802 5804 5806 5805 5802 5799 5795 5791 5785 5778 5772 5766 5763 5760 5757 5754 5752 5749 5747 5745 5742 5739 5736 5734 5732 5731 5729 5728 5727 5725 5723 5721 5719 5718
5811 5806 5797 5794 5792 5796 5806 5809 5809 5804 5801 5808 5807 5794 5791 5796 5801 5801 5800 5797 5794 5790 5786 5781 5777 5773 5768 5763 5757 5754 5751 5748 5745 5743 5741 5738 5736 5734 5731 5730 5728 5726 5725 5723 5722 5720 5718 5716 5715
5810 5799 5791 5791 5792 5796 5806 5804 5806 5810 5805 5802 5802 5798 5796 5798 5797 5794 5792 5790 5787 5784 5782 5778 5775 5770 5767 5764 5757 5752 5748 5745 5742 5740 5736 5734 5735 5734 5731 5729 5726 5723 5721 5719 5718 5716 5715 5713 5712
5804 5793 5790 5797 5801 5799 5802 5801 5802 5801 5796 5792 5792 5793 5794 5792 5790 5786 5784 5782 5780 5777 5776 5774 5771 5767 5763 5760 5755 5751 5747 5744 5741 5739 5736 5733 5733 5731 5730 5726 5722 5719 5717 5716 5715 5713 5711 5710 5712
5802 5793 5796 5800 5805 5803 5799 5799 5803 5795 5787 5788 5786 5785 5786 5785 5783 5781 5780 5779 5777 5774 5770 5770 5766 5762 5759 5755 5752 5748 5745 5742 5739 5736 5733 5730 5729 5728 5727 5724 5720 5718 5716 5715 5714 5712 5712 5712 5711
5797 5797 5799 5799 5804 5802 5798 5798 5794 5790 5787 5793 5791 5786 5781 5777 5776 5775 5773 5773 5773 5769 5766 5764 5761 5757 5753 5751 5748 5744 5742 5739 5736 5732 5729 5727 5726 5725 5723 5720 5719 5716 5714 5712 5712 5711 5711 5709 5708
5794 5794 5798 5801 5802 5800 5796 5791 5787 5784 5790 5791 5787 5781 5776 5773 5770 5769 5768 5767 5766 5763 5761 5759 5755 5751 5747 5744 5741 5740 5736 5735 5731 5727 5725 5722 5722 5721 5719 5715 5714 5713 5712 5710 5709 5708 5707 5706 5705
5797 5796 5797 5799 5798 5796 5789 5786 5784 5780 5785 5782 5777 5773 5770 5767 5765 5762 5759 5758 5757 5756 5754 5753 5749 5746 5742 5738 5735 5733 5731 5727 5726 5723 5720 5718 5717 5715 5713 5713 5710 5709 5708 5708 5705 5704 5703 5702 5701
5798 5791 5793 5795 5795 5794 5789 5776 5776 5780 5780 5774 5770 5766 5763 5762 5760 5756 5754 5752 5750 5749 5748 5746 5744 5740 5736 5732 5730 5728 5725 5722 5720 5718 5715 5713 5712 5709 5708 5706 5705 5705 5704 5702 5701 5700 5699 5698 5698
5795 5789 5783 5788 5789 5789 5780 5764 5771 5778 5773 5766 5763 5760 5757 5755 5755 5752 5750 5747 5746 5743 5740 5739 5738 5734 5730 5726 5724 5723 5720 5717 5714 5712 5711 5709 5707 5704 5702 5701 5701 5699 5699 5699 5697 5696 5695 5694 5693
5789 5782 5779 5780 5786 5784 5777 5764 5768 5772 5767 5760 5758 5756 5752 5749 5748 5747 5745 5742 5739 5736 5733 5731 5729 5726 5724 5721 5718 5716 5712 5709 5708 5707 5706 5704 5703 5700 5698 5697 5696 5695 5695 5694 5693 5692 5690 5689 5689
5777 5780 5776 5773 5778 5776 5769 5763 5764 5764 5760 5755 5752 5750 5746 5743 5741 5741 5738 5736 5732 5729 5726 5723 5721 5719 5717 5715 5711 5708 5705 5704 5702 5701 5700 5699 5697 5694 5693 5692 5691 5690 5689 5687 5686 5684 5684 5684 5684
5781 5777 5772 5772 5776 5770 5763 5758 5757 5756 5752 5748 5745 5743 5740 5737 5737 5735 5732 5729 5726 5723 5719 5716 5713 5711 5709 5707 5704 5700 5699 5698 5697 5696 5694 5693 5691 5689 5687 5687 5686 5684 5683 5681 5681 5679 5679 5679 5680
5778 5771 5769 5769 5771 5763 5758 5754 5754 5751 5746 5742 5738 5736 5734 5732 5730 5727 5725 5722 5719 5715 5712 5710 5706 5704 5702 5700 5697 5695 5693 5692 5691 5690 5687 5686 5685 5683 5682 5680 5680 5679 5677 5675 5674 5673 5673 5675 5675
5772 5768 5765 5760 5762 5762 5754 5747 5745 5745 5743 5737 5734 5732 5730 5726 5723 5720 5717 5715 5713 5709 5706 5703 5699 5696 5694 5692 5691 5689 5687 5686 5685 5683 5681 5680 5679 5678 5676 5675 5674 5673 5673 5671 5669 5668 5667 5668 5669
5764 5771 5766 5759 5753 5754 5751 5738 5742 5738 5732 5728 5727 5725 5723 5721 5719 5715 5711 5709 5706 5703 5701 5696 5692 5689 5687 5685 5685 5682 5680 5678 5677 5676 5676 5674 5673 5673 5671 5669 5668 5668 5667 5666 5665 5665 5664 5662 5663
5763 5769 5764 5760 5754 5749 5749 5736 5739 5735 5723 5721 5720 5718 5716 5715 5713 5709 5706 5703 5701 5698 5695 5691 5687 5683 5680 5678 5677 5675 5675 5674 5673 5671 5669 5669 5668 5667 5666 5664 5663 5662 5661 5661 5659 5658 5658 5658 5658
5764 5762 5761 5758 5755 5734 5739 5730 5727 5726 5718 5717 5715 5713 5710 5708 5706 5703 5701 5698 5695 5692 5688 5685 5680 5677 5674 5673 5672 5669 5668 5667 5666 5665 5664 5664 5664 5663 5661 5660 5659 5658 5657 5656 5654 5653 5653 5652 5651
5757 5748 5740 5737 5735 5732 5737 5724 5718 5719 5718 5713 5709 5707 5706 5704 5700 5696 5693 5691 5688 5685 5681 5678 5674 5670 5669 5668 5666 5665 5663 5662 5661 5661 5659 5659 5659 5658 5655 5655 5654 5653 5651 5650 5649 5648 5648 5647 5645
5744 5740 5723 5714 5718 5728 5730 5718 5717 5716 5715 5711 5708 5704 5701 5697 5694 5691 5688 5685 5681 5678 5675 5671 5668 5665 5664 5663 5662 5661 5660 5660 5659 5656 5655 5655 5654 5653 5651 5650 5650 5649 5647 5646 5644 5644 5643 5642 5641
5738 5736 5735 5723 5724 5715 5719 5717 5712 5711 5707 5703 5700 5696 5692 5690 5687 5685 5682 5679 5675 5672 5669 5666 5663 5660 5659 5658 5657 5657 5656 5655 5654 5651 5650 5651 5649 5648 5647 5647 5646 5645 5644 5642 5640 5639 5638 5638 5638
5737 5731 5726 5716 5698 5697 5708 5708 5702 5697 5695 5694 5692 5689 5686 5684 5682 5679 5677 5673 5670 5668 5665 5662 5659 5656 5654 5653 5653 5653 5652 5650 5649 5648 5646 5646 5645 5644 5644 5643 5642 5641 5640 5639 5637 5636 5635 5634 5633
5724 5720 5715 5713 5706 5691 5689 5694 5701 5694 5690 5687 5686 5684 5682 5679 5677 5674 5671 5669 5666 5663 5661 5657 5654 5651 5649 5649 5648 5647 5647 5647 5646 5644 5643 5643 5642 5642 5640 5640 5638 5637 5637 5636 5634 5632 5631 5629 5628
5720 5713 5708 5693 5691 5693 5685 5685 5698 5692 5688 5684 5681 5679 5677 5675 5672 5670 5666 5663 5660 5657 5655 5652 5650 5647 5646 5645 5644 5643 5643 5642 5642 5641 5640 5640 5639 5638 5638 5637 5635 5634 5633 5632 5630 5628 5626 5625 5623